[Iaude] MPEC U98: 2013 SR100 [a=45.44,e=0.18,i=24.2,H=7.1]

mpec at mpcdb1.cfa.harvard.edu mpec at mpcdb1.cfa.harvard.edu
Thu Oct 19 18:25:16 EDT 2017


M.P.E.C. 2017-U98                                Issued 2017 Oct. 19, 22:21 UT
 
     The Minor Planet Electronic Circulars contain information on unusual
         minor planets and routine data on comets.  They are published
    on behalf of Division F of the International Astronomical Union by the
          Minor Planet Center, Smithsonian Astrophysical Observatory,
                          Cambridge, MA 02138, U.S.A.

             Prepared using the Tamkin Foundation Computer Network

                              MPC at CFA.HARVARD.EDU
            URL http://www.minorplanetcenter.net/    ISSN 1523-6714


                                  2013 SR100
 
Observations:
     K13SA0R @C2013 08 05.48538 00 50 22.004+02 27 51.77         24.5 rqEU098568
     K13SA0R @C2013 08 05.53383 00 50 21.920+02 27 51.04         24.0 rqEU098568
     K13SA0R @C2013 08 08.46429 00 50 16.815+02 27 21.50         24.5 rqEU098568
     K13SA0R @C2013 08 08.50311 00 50 16.713+02 27 21.21               qEU098568
     K13SA0R @C2013 08 31.54913 00 49 19.948+02 21 53.35         24.0 rqEU098568
     K13SA0R @C2013 08 31.59296 00 49 19.807+02 21 52.62               qEU098568
     K13SA0R @C2013 08 31.59772 00 49 19.793+02 21 52.74               qEU098568
     K13SA0R @C2013 08 31.61256 00 49 19.768+02 21 52.42         24.0 rqEU098568
     K13SA0R @C2013 09 01.43491 00 49 17.249+02 21 38.06         24.5 rqEU098568
     K13SA0R @C2013 09 01.47388 00 49 17.126+02 21 37.37         24.1 rqEU098568
     K13SA0R @C2013 09 05.41441 00 49 04.752+02 20 27.03         24.4 rqEU098568
     K13SA0R @C2013 09 05.45322 00 49 04.598+02 20 26.23         24.2 rqEU098568
     K13SA0R*@C2013 09 29.34540 00 47 39.740+02 12 35.69         24.5 rqEU098568
     K13SA0R @C2013 09 29.38422 00 47 39.587+02 12 34.79         24.5 rqEU098568
     K13SA0R @C2013 09 29.42805 00 47 39.430+02 12 33.92         24.2 rqEU098568
     K13SA0R @C2013 10 02.41909 00 47 28.106+02 11 32.86         23.9 rqEU098568
     K13SA0R @C2013 10 04.51065 00 47 20.139+02 10 50.25         24.2 rqEU098568
     K13SA0R @C2013 10 09.47694 00 47 01.254+02 09 10.36         24.4 rqEU098568
     K13SA0R @C2013 11 27.27126 00 44 25.762+01 57 06.73         24.6 rqEU098568
     K13SA0R @C2013 11 27.31577 00 44 25.659+01 57 06.33         24.1 rqEU098568
     K13SA0R @C2013 12 05.23284 00 44 10.811+01 56 24.45         24.5 rqEU098568
     K13SA0R @C2014 06 25.58497 00 52 53.799+03 06 04.99         24.7 rqEU098568
     K13SA0R @C2014 06 26.58383 00 52 54.917+03 06 12.84         24.6 rqEU098568
     K13SA0R @C2014 07 23.57151 00 52 59.102+03 07 01.27         24.1 rqEU098568
     K13SA0R @C2014 07 27.55192 00 52 55.517+03 06 42.51         24.9 rqEU098568
     K13SA0R @C2014 11 24.29111 00 46 53.903+02 35 21.28         24.4 rqEU098568
     K13SA0R @C2014 11 25.31746 00 46 51.501+02 35 12.38         24.2 rqEU098568
     K13SA0R @C2014 12 17.34321 00 46 16.235+02 33 47.96         24.5 rqEU098568
     K13SA0R @C2015 01 18.23551 00 46 25.586+02 38 14.87         24.5 rqEU098568
     K13SA0R @C2015 08 20.51481 00 54 35.712+03 40 44.46         24.3 rqEU098568
     K13SA0R @C2015 10 12.27435 00 51 37.361+03 24 38.54         24.3 rqEU098568
     K13SA0R @C2015 10 12.35600 00 51 37.040+03 24 36.91         23.5 rqEU098568
     K13SA0R @C2015 12 07.39898 00 48 49.304+03 11 46.56         24.6 wqEU098568
     K13SA0R @C2015 12 31.22795 00 48 30.784+03 12 13.98         24.4 wqEU098568
     K13SA0R @C2016 11 04.31217 00 52 33.681+03 55 32.15         24.3 wqEU098568
     K13SA0R @C2016 11 04.37124 00 52 33.484+03 55 31.24         24.4 wqEU098568
     K13SA0R @C2017 07 17.62072 01 00 06.078+05 00 05.07               qEU098568
     K13SA0R @C2017 07 23.60916 01 00 03.381+05 00 01.31               qEU098568
     K13SA0R @C2017 08 30.47857 00 58 53.593+04 54 20.37         24.3 wqEU098568
     K13SA0R @C2017 08 30.53116 00 58 53.441+04 54 19.41         24.1 wqEU098568
 
Observer details:
568 Mauna Kea.  Observers M. T. Bannister, J. J. Kavelaars, B. J. Gladman,
    J.-M. Petit, T. Burdullis.  Measurers S. D. J. Gwyn, Y.-T. Chen,
    M. Alexandersen, M. Schwamb.  3.6-m Canada-France-Hawaii Telescope + CCD.
 
Orbital elements:
2013 SR100
Epoch 2017 Sept. 4.0 TT = JDT 2458000.5                 MPC
M 213.56835              (2000.0)            P               Q
n   0.00321818     Peri.  153.06545     -0.97458861     -0.18660982
a  45.4355917      Node    17.56052     +0.04048223     -0.69078660
e   0.1829598      Incl.   24.24818     +0.22031393     -0.69856328
P 306              H    7.1           G   0.15           U   4
Residuals in seconds of arc
130805 568  0.1+  0.0     130929 568  0.0   0.1+    150118 568  0.1+  0.0
130805 568  0.0   0.3-    131002 568  0.1+  0.1+    150820 568  0.1-  0.1-
130808 568  0.1+  0.0     131004 568  0.1-  0.1+    151012 568  0.1+  0.0
130808 568  0.3-  0.1+    131009 568  0.1-  0.3+    151012 568  0.0   0.1-
130831 568  0.1+  0.1-    131127 568  0.1+  0.1+    151207 568  0.1-  0.0
130831 568  0.0   0.1-    131127 568  0.0   0.0     151231 568  0.0   0.0
130831 568  0.1+  0.1+    131205 568  0.1+  0.2+    161104 568  0.0   0.0
130831 568  0.4+  0.0     140625 568  0.0   0.1-    161104 568  0.0   0.0
130901 568  0.0   0.1-    140626 568  0.2+  0.0     170717 568  0.1+  0.1+
130901 568  0.0   0.1-    140723 568  0.3+  0.0     170723 568  0.1-  0.1-
130905 568  0.0   0.0     140727 568  0.0   0.1-    170830 568  0.0   0.1+
130905 568  0.4-  0.1-    141124 568  0.0   0.0     170830 568  0.0   0.1-
130929 568  0.1-  0.1+    141125 568  0.2-  0.0
130929 568  0.2-  0.0     141217 568  0.2-  0.1+

Ephemeris:
2013 SR100               a,e,i = 45.44, 0.18, 24                 q = 37.123
Date    TT    R. A. (2000) Decl.     Delta      r     Elong.  Phase     V
2017 09 19    00 57 49.6 +04 48 41  51.7845 52.7343   160.8     0.4    24.4
...
2017 10 04    00 56 53.6 +04 43 44  51.7340 52.7314   175.6     0.1    24.3
...
2017 10 12    00 56 22.9 +04 41 03  51.7342 52.7299   176.0     0.1    24.3
...
2017 10 18    00 56 00.0 +04 39 05  51.7470 52.7287   170.1     0.2    24.3
2017 10 19    00 55 56.2 +04 38 45  51.7502 52.7285   169.0     0.2    24.3
2017 10 20    00 55 52.5 +04 38 26  51.7537 52.7283   168.0     0.2    24.3
...
2017 10 26    00 55 30.2 +04 36 32  51.7808 52.7272   162.0     0.3    24.4
...
2017 11 03    00 55 01.9 +04 34 10  51.8330 52.7256   153.9     0.5    24.4
...
2017 11 18    00 54 15.0 +04 30 27  51.9769 52.7227   138.6     0.7    24.4

A. U. Tomatic                (C) Copyright 2017 MPC           M.P.E.C. 2017-U98



More information about the Iaude mailing list